Temp
82 81 78 72 61 60 56 63 69 68 69 74 78 74 69 68 65 57 71 75 76 76 79 81 82 83 83 83 83 83 83 84 84 83 83 83 83 83 83 83 83 83 83 83 83 83 83 83 83
80 80 75 69 58 54 57 68 66 70 73 75 77 74 69 63 70 68 69 76 77 77 77 79 82 83 83 83 83 83 84 83 83 83 83 83 83 83 83 83 83 83 83 83 83 83 83 83 84
81 83 68 62 58 55 58 68 68 74 77 76 73 75 70 66 71 71 73 77 77 75 76 78 82 83 83 83 83 83 84 83 83 83 83 83 83 83 83 83 83 83 83 83 83 83 83 83 83
78 73 68 62 60 64 67 70 73 74 77 77 74 67 72 76 73 74 77 78 75 74 75 81 83 83 83 83 83 83 84 84 83 83 83 83 83 83 83 83 83 83 83 83 83 83 83 83 83
75 70 62 60 62 69 72 76 76 73 74 74 74 66 66 74 76 76 76 77 75 74 76 80 83 83 83 83 83 84 83 83 83 83 83 83 84 84 83 83 83 83 83 83 83 83 83 83 83
71 70 61 56 64 72 74 76 77 74 74 74 71 68 65 74 73 75 77 76 77 76 76 78 82 83 83 83 84 83 84 83 83 83 83 83 83 83 83 83 83 83 83 84 83 83 83 83 83
71 66 62 62 65 69 74 79 75 73 73 72 76 63 65 70 74 76 75 74 76 77 76 77 78 81 84 84 84 83 84 84 83 83 83 83 83 83 83 83 84 84 84 83 83 83 83 83 83
75 70 66 65 65 67 77 79 79 76 74 81 79 63 61 70 76 74 74 73 74 75 76 75 76 77 77 79 84 84 83 83 84 84 83 83 83 84 84 83 83 84 84 84 84 83 83 82 82
81 65 62 67 68 71 78 75 80 82 77 79 79 74 73 75 75 72 71 73 72 74 74 74 74 74 76 77 80 83 84 83 84 83 83 82 77 79 80 81 82 84 84 84 84 83 83 83 83
72 63 68 77 77 74 78 77 77 75 74 73 71 74 75 74 72 70 69 70 72 72 73 73 73 74 75 80 77 76 78 78 78 78 78 76 76 76 78 80 83 84 85 85 84 84 84 83 79
75 71 76 80 81 81 78 77 81 73 69 73 68 70 72 72 72 71 71 71 70 72 75 74 73 74 74 75 74 74 75 75 76 76 76 76 75 74 75 75 76 74 79 77 80 80 77 77 76
73 82 83 81 83 81 77 80 76 76 75 79 75 73 72 71 71 72 72 72 71 71 73 74 73 73 73 73 74 74 74 74 74 74 75 74 74 73 72 73 74 74 74 74 74 75 76 76 76
76 80 81 84 82 81 82 78 76 76 79 79 77 74 72 72 73 75 75 75 74 71 73 73 74 72 73 72 73 74 73 74 75 75 75 74 73 72 73 72 72 72 73 73 74 73 72 72 73
80 78 81 83 81 81 77 76 78 76 79 75 75 72 73 73 74 75 75 74 74 74 74 75 75 74 73 73 72 73 73 74 74 75 75 75 73 72 72 72 72 73 72 72 72 73 73 72 73
81 75 78 79 79 77 79 71 71 76 79 73 73 74 74 74 76 75 76 75 76 76 76 76 76 76 73 74 73 73 74 76 74 76 75 76 74 73 73 73 72 73 73 74 74 73 73 72 73
75 72 65 75 79 79 76 63 70 76 77 74 75 74 75 75 76 78 78 77 77 77 76 76 80 77 75 74 73 74 74 74 74 74 73 76 75 74 74 73 73 74 74 73 73 73 72 72 72
67 61 65 74 79 77 72 65 71 75 76 73 75 76 75 75 76 78 80 79 78 77 76 76 77 77 75 72 73 74 75 74 74 73 73 74 75 75 74 73 74 74 73 73 73 73 72 72 72
60 61 66 66 74 75 71 69 70 74 75 74 75 75 75 76 76 79 80 81 80 78 76 77 77 76 74 73 73 73 73 75 75 74 74 74 74 75 73 73 74 74 74 74 73 73 72 72 70
68 64 64 70 76 72 70 71 71 73 74 72 73 75 74 75 79 79 80 81 79 77 75 75 76 74 73 72 71 71 71 73 73 74 74 75 75 75 74 73 74 73 73 73 73 72 71 70 70
65 62 62 71 75 72 69 71 73 71 73 74 73 73 75 75 75 76 77 79 77 77 76 75 76 73 75 76 73 73 72 73 73 72 72 73 72 74 74 74 73 72 71 71 71 70 70 69 68
60 59 62 67 71 71 69 66 67 70 70 72 75 77 77 78 75 74 76 78 77 76 75 75 75 74 75 73 73 73 73 72 71 71 72 72 73 75 75 74 73 71 71 70 69 69 69 68 69
54 70 70 69 63 56 68 54 61 63 64 67 71 73 75 77 78 77 77 78 78 78 78 77 75 74 75 73 74 72 72 70 71 72 72 73 74 75 75 73 72 71 70 69 70 70 68 67 67
67 71 68 67 59 56 60 56 61 60 66 65 68 74 76 79 79 77 78 79 80 81 78 77 75 74 74 74 74 73 72 72 73 73 72 73 74 75 73 72 71 70 70 70 70 70 68 68 66
71 65 60 55 54 48 54 56 57 61 64 67 67 71 75 76 77 79 80 81 80 80 77 76 73 73 73 74 72 72 72 72 71 72 71 72 71 71 72 72 71 70 71 71 71 70 68 67 66
63 56 48 47 48 49 45 54 60 66 70 69 69 71 73 74 74 73 76 77 77 76 76 74 72 72 72 73 73 72 72 72 72 71 72 72 70 69 71 71 71 71 71 71 70 68 68 67 66
57 58 49 43 43 50 45 51 62 68 70 71 73 72 74 74 76 75 77 79 78 78 76 75 71 72 72 72 72 72 73 73 73 72 71 72 71 70 71 71 71 71 71 70 69 67 67 65 64
56 54 55 47 39 45 50 58 66 67 68 71 71 73 73 73 72 74 75 79 77 77 76 77 72 73 73 74 71 72 72 73 73 72 71 73 70 70 71 72 71 71 70 69 67 66 64 63 62
63 64 55 48 43 40 48 50 55 62 65 68 69 71 72 73 72 74 74 78 80 80 79 78 75 72 75 73 72 74 73 73 71 70 70 70 69 70 71 70 71 70 69 67 65 64 63 62 61
60 54 50 50 47 45 44 52 61 65 67 68 70 72 71 73 73 75 75 77 77 80 79 78 77 74 74 76 73 73 73 71 69 69 70 70 70 70 69 69 69 68 66 65 63 62 61 59 58
59 58 55 51 47 41 46 54 65 66 68 70 71 71 72 74 74 75 75 74 77 77 77 77 77 78 77 78 76 74 72 71 71 70 71 70 70 70 69 67 67 66 65 64 63 62 60 58 58
MSLP
1007.16 1007.39 1007.89 1008.06 1008.62 1008.33 1008.52 1008.06 1007.44 1007.53 1007.70 1007.67 1008.05 1008.77 1009.85 1010.83 1011.52 1012.65 1012.46 1012.52 1012.74 1013.30 1013.45 1013.58 1013.77 1013.88 1014.17 1014.40 1014.54 1014.61 1014.86 1015.05 1015.21 1015.38 1015.57 1015.67 1015.86 1015.95 1016.05 1016.17 1016.24 1016.28 1016.31 1016.37 1016.65 1016.66 1016.67 1016.73 1016.83
1006.94 1007.65 1007.87 1007.88 1008.46 1008.73 1008.33 1007.73 1007.41 1007.44 1007.69 1007.71 1008.17 1008.96 1009.86 1011.20 1011.69 1012.31 1012.76 1012.87 1012.82 1013.23 1013.63 1013.80 1013.86 1014.17 1014.53 1014.58 1014.72 1014.96 1015.31 1015.35 1015.41 1015.67 1015.74 1015.85 1016.00 1016.09 1016.16 1016.30 1016.37 1016.45 1016.48 1016.62 1016.74 1016.78 1016.83 1016.93 1017.03
1007.23 1007.21 1007.74 1007.67 1008.37 1008.63 1008.08 1007.53 1007.51 1007.42 1007.49 1007.75 1008.63 1009.29 1010.38 1011.59 1012.02 1012.45 1012.51 1012.92 1013.03 1013.60 1013.83 1013.98 1014.07 1014.35 1014.49 1014.73 1015.00 1015.24 1015.49 1015.58 1015.73 1015.88 1015.94 1016.08 1016.14 1016.27 1016.37 1016.44 1016.48 1016.61 1016.72 1016.83 1016.95 1016.91 1017.00 1017.08 1017.22
1006.85 1007.41 1007.74 1007.74 1008.16 1007.80 1007.40 1007.25 1007.24 1007.41 1007.65 1008.07 1008.88 1010.07 1010.95 1011.34 1011.97 1012.30 1012.80 1013.13 1013.48 1013.79 1014.00 1014.12 1014.34 1014.47 1014.72 1014.94 1015.18 1015.38 1015.64 1015.81 1015.95 1016.08 1016.05 1016.17 1016.24 1016.33 1016.53 1016.48 1016.55 1016.73 1016.88 1016.96 1017.11 1017.17 1017.10 1017.17 1017.38
1007.02 1007.14 1007.91 1008.04 1007.83 1007.28 1006.82 1006.87 1007.10 1007.37 1007.95 1008.67 1009.08 1010.84 1011.77 1012.18 1012.10 1012.54 1012.97 1013.38 1013.66 1014.05 1014.24 1014.36 1014.50 1014.68 1014.82 1014.98 1015.28 1015.55 1015.79 1015.98 1016.07 1016.19 1016.18 1016.32 1016.42 1016.44 1016.58 1016.59 1016.71 1016.85 1017.05 1017.16 1017.27 1017.32 1017.34 1017.39 1017.53
1006.73 1007.20 1008.20 1008.32 1007.63 1007.12 1006.72 1006.83 1007.14 1007.58 1008.28 1009.04 1009.95 1011.03 1012.46 1012.57 1012.62 1012.94 1013.17 1013.60 1013.79 1014.08 1014.36 1014.56 1014.67 1014.83 1015.01 1015.22 1015.40 1015.66 1015.87 1016.04 1016.09 1016.19 1016.33 1016.44 1016.51 1016.59 1016.73 1016.75 1016.89 1017.02 1017.08 1017.21 1017.37 1017.46 1017.55 1017.54 1017.64
1006.69 1007.31 1007.82 1007.75 1007.41 1006.94 1006.57 1006.59 1007.18 1007.79 1008.38 1009.00 1009.57 1011.28 1012.78 1013.05 1013.18 1013.31 1013.59 1014.00 1014.22 1014.29 1014.54 1014.76 1014.83 1014.98 1015.18 1015.32 1015.58 1015.80 1015.93 1015.99 1016.16 1016.26 1016.43 1016.58 1016.71 1016.79 1016.84 1016.93 1016.98 1017.12 1017.14 1017.23 1017.34 1017.44 1017.55 1017.62 1017.77
1006.20 1006.75 1007.27 1007.18 1007.03 1006.48 1006.24 1006.55 1007.00 1007.60 1008.39 1008.73 1009.15 1010.88 1012.38 1012.77 1013.24 1013.74 1014.11 1014.39 1014.63 1014.80 1014.81 1014.96 1015.06 1015.19 1015.35 1015.48 1015.62 1015.81 1015.92 1016.09 1016.26 1016.38 1016.54 1016.75 1016.85 1016.85 1016.86 1016.99 1017.08 1017.08 1017.09 1017.26 1017.43 1017.55 1017.59 1017.68 1017.81
1005.82 1006.65 1006.89 1006.54 1006.43 1005.86 1006.00 1006.47 1007.11 1007.41 1008.17 1008.76 1009.38 1010.17 1011.07 1012.48 1013.26 1013.89 1014.46 1014.76 1015.01 1015.15 1015.18 1015.11 1015.24 1015.41 1015.48 1015.66 1015.78 1015.88 1016.03 1016.23 1016.24 1016.37 1016.57 1016.81 1017.02 1017.13 1017.14 1017.14 1017.19 1017.15 1017.16 1017.25 1017.32 1017.49 1017.57 1017.63 1017.70
1005.79 1006.26 1005.91 1005.25 1005.22 1005.32 1005.78 1006.16 1006.84 1007.69 1008.37 1009.32 1010.07 1010.83 1011.69 1012.66 1013.23 1013.61 1014.12 1014.44 1014.82 1015.07 1015.19 1015.33 1015.37 1015.46 1015.54 1015.69 1015.95 1016.12 1016.21 1016.33 1016.47 1016.63 1016.80 1017.02 1017.17 1017.29 1017.32 1017.31 1017.24 1017.28 1017.26 1017.30 1017.31 1017.33 1017.40 1017.50 1017.70
1005.30 1005.35 1004.73 1004.28 1004.49 1004.79 1005.52 1006.30 1006.62 1007.48 1008.57 1009.02 1010.13 1011.22 1012.10 1012.82 1013.31 1013.50 1013.65 1013.74 1013.98 1014.68 1015.12 1015.32 1015.49 1015.47 1015.61 1015.85 1016.12 1016.24 1016.30 1016.48 1016.74 1016.87 1016.99 1017.11 1017.25 1017.40 1017.54 1017.64 1017.54 1017.61 1017.38 1017.37 1017.33 1017.43 1017.56 1017.59 1017.69
1004.77 1004.09 1003.89 1003.84 1004.22 1004.82 1005.46 1006.00 1006.81 1007.16 1007.59 1008.16 1009.44 1010.57 1011.83 1012.76 1013.18 1013.29 1013.52 1013.86 1014.18 1014.58 1014.94 1015.18 1015.27 1015.44 1015.69 1015.97 1016.08 1016.15 1016.36 1016.63 1016.81 1016.94 1017.05 1017.15 1017.24 1017.46 1017.65 1017.68 1017.60 1017.54 1017.48 1017.46 1017.54 1017.50 1017.50 1017.42 1017.58
1004.54 1003.76 1003.73 1003.50 1004.22 1004.81 1005.31 1006.10 1006.88 1007.63 1007.84 1008.60 1009.85 1010.89 1011.74 1012.35 1012.99 1013.37 1013.55 1013.80 1013.98 1014.30 1014.60 1014.83 1015.12 1015.29 1015.46 1015.82 1015.99 1016.09 1016.27 1016.48 1016.63 1016.78 1016.82 1016.99 1017.19 1017.46 1017.55 1017.57 1017.58 1017.55 1017.50 1017.39 1017.33 1017.42 1017.49 1017.54 1017.50
1004.23 1003.93 1003.85 1004.00 1004.47 1005.06 1005.60 1006.19 1006.52 1007.90 1008.43 1009.40 1010.04 1010.71 1011.37 1011.85 1012.35 1013.00 1013.40 1013.63 1013.78 1013.89 1014.26 1014.60 1014.78 1014.93 1015.27 1015.63 1015.81 1015.89 1016.03 1016.17 1016.44 1016.49 1016.62 1016.77 1017.00 1017.27 1017.37 1017.42 1017.38 1017.30 1017.30 1017.28 1017.33 1017.23 1017.26 1017.32 1017.31
1004.27 1004.40 1004.32 1004.58 1004.97 1005.35 1005.57 1006.55 1007.05 1007.46 1008.16 1009.48 1010.41 1010.72 1010.89 1011.23 1011.89 1012.03 1012.47 1013.02 1013.19 1013.31 1013.75 1014.10 1014.41 1014.49 1015.02 1015.35 1015.53 1015.70 1015.78 1015.96 1016.12 1016.31 1016.31 1016.50 1016.65 1016.85 1016.92 1017.09 1017.09 1017.06 1017.00 1017.08 1017.08 1017.09 1017.07 1017.23 1017.04
1004.90 1005.26 1005.52 1005.19 1005.12 1005.11 1005.69 1006.24 1007.11 1007.48 1007.85 1009.04 1009.83 1010.49 1010.85 1010.98 1010.96 1011.37 1011.65 1012.07 1012.75 1013.17 1013.48 1013.65 1013.99 1014.44 1014.80 1015.00 1015.10 1015.38 1015.60 1015.78 1015.89 1016.17 1016.27 1016.17 1016.30 1016.66 1016.81 1017.02 1017.04 1016.87 1016.84 1016.92 1016.94 1017.15 1017.24 1017.14 1017.06
1006.45 1006.47 1006.04 1005.45 1005.07 1005.40 1005.98 1006.51 1007.36 1007.64 1008.16 1008.68 1009.15 1010.04 1010.64 1010.98 1011.00 1010.89 1010.99 1011.32 1011.84 1012.49 1013.05 1013.43 1013.61 1013.99 1014.48 1014.90 1014.94 1015.25 1015.56 1015.71 1015.79 1015.80 1015.90 1016.01 1016.27 1016.50 1016.68 1016.97 1016.93 1016.84 1016.89 1016.90 1017.06 1017.23 1017.29 1017.18 1017.10
1007.18 1007.01 1006.52 1006.08 1005.45 1005.42 1006.19 1006.54 1007.25 1007.55 1007.77 1007.89 1008.69 1009.50 1010.11 1010.48 1010.35 1010.44 1010.54 1010.91 1011.34 1011.92 1012.55 1012.98 1013.34 1013.73 1014.33 1014.88 1015.13 1015.37 1015.58 1015.57 1015.73 1015.72 1015.79 1016.14 1016.46 1016.54 1016.80 1016.87 1016.85 1016.78 1016.89 1017.06 1017.17 1017.40 1017.34 1017.29 1017.28
1006.87 1007.19 1006.93 1005.91 1005.58 1005.79 1006.17 1006.38 1006.36 1006.65 1007.46 1008.02 1008.31 1009.00 1009.15 1009.41 1009.63 1009.97 1010.16 1010.45 1011.00 1011.52 1012.16 1012.53 1013.06 1013.44 1014.13 1014.72 1015.20 1015.39 1015.50 1015.65 1015.90 1015.72 1015.81 1016.12 1016.41 1016.55 1016.71 1016.86 1016.82 1016.72 1016.99 1017.17 1017.31 1017.55 1017.68 1017.62 1017.45
1006.94 1007.12 1007.06 1006.10 1005.65 1005.94 1006.47 1006.47 1006.34 1006.61 1006.59 1006.82 1007.43 1008.18 1008.47 1008.75 1009.10 1009.33 1009.57 1010.05 1010.44 1010.87 1011.44 1012.09 1012.41 1012.98 1013.42 1013.95 1014.44 1014.88 1015.23 1015.45 1015.65 1015.71 1015.83 1015.99 1016.25 1016.43 1016.53 1016.80 1016.87 1017.02 1017.30 1017.38 1017.50 1017.62 1017.80 1017.89 1017.76
1007.11 1007.29 1007.32 1007.21 1006.40 1006.04 1006.52 1006.60 1006.47 1006.54 1006.49 1006.73 1007.09 1007.23 1007.54 1007.72 1008.24 1008.66 1009.09 1009.38 1009.96 1010.58 1010.92 1011.44 1011.79 1012.32 1012.94 1013.35 1014.09 1014.86 1015.25 1015.52 1015.64 1015.86 1015.86 1015.96 1016.20 1016.29 1016.38 1016.59 1016.78 1017.32 1017.53 1017.70 1017.87 1017.92 1017.95 1018.08 1018.02
1006.95 1006.63 1007.09 1007.62 1007.84 1007.72 1007.35 1007.80 1006.80 1006.66 1006.53 1006.45 1006.65 1006.63 1006.39 1006.82 1007.41 1008.17 1008.53 1008.99 1009.26 1009.52 1010.29 1010.82 1011.53 1011.95 1012.52 1013.15 1013.80 1014.40 1014.73 1015.12 1015.11 1015.31 1015.70 1015.81 1015.93 1016.20 1016.35 1016.61 1016.96 1017.34 1017.64 1017.85 1018.02 1018.08 1018.11 1018.13 1018.32
1006.69 1006.84 1007.51 1007.93 1008.49 1008.85 1008.69 1008.95 1007.19 1006.92 1006.19 1005.31 1005.65 1005.22 1005.32 1005.81 1006.47 1007.08 1007.76 1008.05 1008.29 1009.00 1009.74 1010.28 1011.02 1011.75 1012.18 1012.78 1013.26 1013.99 1014.43 1014.63 1014.85 1015.21 1015.61 1015.90 1015.96 1016.16 1016.61 1016.81 1017.12 1017.51 1017.67 1017.92 1018.04 1018.17 1018.25 1018.31 1018.50
1006.21 1007.53 1008.33 1009.04 1009.75 1010.48 1009.21 1009.42 1007.32 1006.99 1006.03 1005.20 1004.97 1004.79 1004.92 1005.51 1005.87 1006.51 1007.08 1007.66 1008.09 1008.70 1009.35 1010.07 1010.68 1011.32 1011.96 1012.39 1012.97 1013.56 1014.09 1014.44 1014.98 1015.39 1015.76 1015.88 1016.26 1016.56 1016.58 1016.75 1017.18 1017.40 1017.67 1017.96 1018.09 1018.29 1018.44 1018.64 1018.79
1006.70 1008.19 1009.73 1011.06 1011.50 1010.94 1009.83 1009.59 1007.17 1005.85 1005.24 1004.64 1004.55 1004.28 1004.70 1005.24 1005.58 1006.08 1006.60 1007.15 1007.67 1008.28 1008.80 1009.62 1010.37 1011.03 1011.70 1012.04 1012.63 1013.14 1013.63 1014.26 1014.66 1015.07 1015.54 1015.94 1016.60 1016.74 1016.80 1016.82 1017.17 1017.41 1017.54 1017.81 1018.06 1018.42 1018.74 1018.94 1019.14
1006.85 1008.13 1009.80 1011.37 1012.34 1011.20 1010.34 1009.06 1006.44 1005.54 1004.72 1004.22 1003.84 1004.18 1004.59 1004.92 1004.96 1005.28 1005.59 1006.11 1006.80 1007.71 1008.49 1009.16 1009.97 1010.40 1010.87 1011.60 1012.35 1012.78 1013.19 1013.75 1014.35 1014.93 1015.55 1015.78 1015.96 1016.28 1016.66 1016.91 1017.14 1017.48 1017.57 1017.80 1018.10 1018.57 1018.96 1019.26 1019.53
1007.00 1008.25 1009.07 1010.87 1012.29 1011.89 1010.29 1008.38 1006.03 1005.36 1004.95 1004.48 1004.28 1004.53 1004.40 1004.38 1004.94 1005.26 1005.83 1006.09 1006.54 1007.23 1007.66 1008.25 1009.06 1010.01 1010.44 1010.95 1011.64 1012.59 1013.16 1013.40 1013.74 1014.54 1015.09 1015.71 1016.51 1016.37 1016.69 1016.88 1017.26 1017.48 1017.73 1018.17 1018.60 1019.21 1019.53 1019.61 1019.81
1005.74 1007.34 1009.16 1010.81 1012.17 1012.20 1010.61 1009.05 1007.34 1005.60 1005.04 1004.71 1004.40 1004.39 1004.20 1004.53 1004.91 1005.16 1005.46 1005.70 1006.08 1006.38 1006.81 1007.70 1008.43 1008.85 1009.48 1010.53 1010.95 1011.85 1012.68 1013.41 1013.67 1014.25 1014.83 1015.17 1016.10 1016.77 1017.20 1017.42 1017.58 1017.73 1018.04 1018.42 1018.75 1019.39 1019.95 1020.25 1020.41
1006.34 1007.32 1009.15 1010.58 1011.52 1011.79 1010.96 1008.95 1006.11 1005.41 1004.78 1004.51 1004.03 1004.07 1004.21 1004.51 1004.78 1004.87 1005.10 1005.23 1005.58 1005.92 1006.56 1007.11 1007.75 1008.38 1008.94 1009.81 1010.63 1011.80 1012.24 1013.31 1013.31 1013.60 1013.75 1014.29 1015.09 1016.04 1016.84 1017.81 1018.35 1018.43 1018.57 1018.91 1019.15 1019.65 1020.04 1020.46 1020.65
1005.42 1006.52 1008.03 1010.23 1011.67 1011.73 1010.66 1008.09 1006.27 1005.73 1005.47 1004.84 1004.19 1004.51 1004.19 1004.60 1004.66 1004.81 1004.96 1005.11 1005.50 1005.91 1006.34 1006.75 1007.26 1007.55 1008.84 1010.75 1011.71 1011.88 1012.77 1012.59 1012.69 1012.92 1013.50 1014.21 1015.34 1015.71 1016.60 1017.52 1018.36 1018.86 1018.99 1019.12 1019.30 1019.69 1020.16 1020.66 1021.04
Wind_Speed
11 7 3 2 4 5 2 4 1 3 2 1 5 2 5 4 1 3 5 7 12 8 6 9 15 16 16 15 15 15 14 13 12 12 11 11 10 8 7 6 5 6 7 6 6 7 8 9 9
5 5 0 1 6 4 4 3 2 3 4 4 9 4 6 4 4 10 6 10 13 9 6 6 14 15 16 15 14 14 13 12 11 10 10 8 8 7 6 5 5 5 6 5 5 7 8 8 9
9 4 0 4 4 2 1 2 2 5 4 4 5 6 4 3 11 10 6 13 12 7 6 7 14 14 15 14 14 13 12 11 10 9 9 8 8 7 5 6 7 6 6 5 6 6 8 7 8
2 2 3 5 3 1 2 4 4 5 4 7 7 7 5 5 9 6 14 12 9 8 6 10 14 14 14 14 12 12 11 11 9 9 9 8 6 9 7 5 6 4 7 5 5 4 7 7 7
1 2 5 4 3 3 2 5 4 4 5 5 3 5 5 3 11 16 13 11 11 8 6 8 13 14 14 13 12 11 10 10 9 8 7 6 6 7 5 6 4 5 4 3 5 5 4 7 7
3 3 5 4 4 3 3 3 4 5 6 5 8 6 2 10 14 12 12 10 8 10 6 6 12 12 12 13 12 12 11 10 9 8 8 7 7 6 5 4 4 4 5 5 4 4 5 4 5
3 3 3 1 3 0 3 5 4 5 6 4 7 5 2 7 8 10 8 7 6 6 6 4 5 9 11 11 11 10 11 10 8 8 8 7 6 5 5 3 4 3 3 3 4 3 3 4 4
3 3 2 1 3 3 5 4 7 7 3 6 9 7 7 8 11 9 8 6 5 4 4 5 4 4 5 6 12 11 9 10 10 9 7 7 7 6 6 6 6 6 5 4 4 4 4 4 4
2 5 1 4 5 4 7 5 3 4 10 1 2 6 11 17 14 12 9 7 4 4 4 5 5 5 5 4 5 10 10 9 9 9 8 7 2 3 4 4 8 7 7 6 7 6 6 6 6
3 4 7 5 5 5 11 6 9 5 6 4 11 15 19 17 15 15 13 13 12 10 6 5 5 5 5 4 3 3 3 3 2 2 2 0 2 3 4 5 8 9 8 8 8 8 9 8 2
3 4 5 3 5 6 10 6 4 10 2 6 15 17 18 16 12 13 13 14 14 10 9 7 5 5 5 3 3 2 2 1 1 3 2 1 1 2 2 2 3 2 7 2 3 3 2 3 2
2 5 5 2 6 5 9 10 5 6 5 13 20 22 17 16 14 13 11 11 11 9 10 7 6 5 5 3 3 3 2 2 2 3 3 3 2 2 3 2 3 3 2 3 3 2 4 6 4
3 4 4 6 8 7 7 5 5 2 9 17 18 19 17 15 12 8 7 7 9 10 11 9 9 7 6 5 3 3 3 3 3 3 4 3 3 2 1 2 2 3 3 2 4 3 3 4 5
4 1 5 7 6 3 3 4 6 4 13 16 18 18 16 16 16 9 9 10 11 10 11 9 11 9 6 7 5 4 4 4 3 3 4 5 3 3 3 3 4 3 3 3 4 3 3 4 4
3 6 6 5 3 2 3 1 0 9 16 17 15 15 16 16 14 16 14 12 12 10 11 12 11 9 9 8 6 4 5 4 4 3 5 5 4 4 4 3 3 3 3 3 2 3 3 4 3
7 6 5 2 4 4 4 7 4 11 17 17 16 15 14 15 19 16 16 14 12 9 11 11 10 10 9 7 6 4 4 3 3 4 4 6 5 4 3 2 3 2 1 0 1 1 2 3 3
8 3 2 1 3 1 1 3 5 7 11 13 15 15 14 13 13 16 17 16 14 13 10 11 11 10 9 6 4 4 4 4 3 3 4 4 4 3 2 2 3 1 1 0 0 1 1 2 3
2 3 4 5 3 3 2 4 7 12 13 16 13 10 10 14 18 15 17 15 13 12 10 11 10 8 7 4 3 1 1 1 1 3 2 3 3 2 2 2 3 2 0 0 0 1 1 1 3
4 4 3 5 2 1 7 6 11 16 13 13 12 12 11 13 9 11 14 14 10 11 11 12 11 8 6 3 3 2 3 2 2 2 4 4 2 2 2 2 3 1 1 1 1 1 3 3 3
2 1 4 8 4 2 5 6 4 11 19 20 18 13 15 11 8 9 11 13 14 15 14 12 14 9 9 7 3 3 3 2 2 2 3 3 2 4 3 4 3 3 2 3 3 2 1 1 5
3 4 4 6 7 3 5 9 4 4 4 6 11 14 15 17 15 9 13 15 12 14 15 14 14 12 11 7 6 3 3 2 2 2 2 3 4 4 4 4 4 3 2 3 2 2 2 1 3
2 6 6 3 3 4 3 7 6 4 9 4 10 14 18 17 13 12 13 13 15 16 12 12 10 11 10 10 8 6 5 4 3 3 3 2 3 4 4 5 5 4 3 4 2 2 2 2 2
10 6 7 4 4 3 3 4 11 4 9 5 12 18 17 18 16 15 16 17 17 13 13 12 10 9 8 11 9 7 4 3 2 2 4 3 3 4 4 5 5 5 3 3 3 3 4 2 2
2 5 6 5 4 2 5 5 9 6 7 9 3 10 14 12 12 12 13 13 13 10 10 10 11 10 8 10 8 9 8 6 4 3 4 3 3 3 5 6 5 4 4 3 3 4 5 4 4
7 8 4 4 4 7 2 3 12 5 9 12 10 13 8 8 9 9 14 14 12 12 13 10 10 10 8 10 9 10 8 7 7 5 4 4 3 2 4 4 5 3 4 4 4 4 4 4 3
4 10 8 6 5 6 3 5 9 7 10 8 7 6 8 10 12 14 17 16 15 14 12 13 12 11 12 10 8 7 8 5 4 4 3 3 4 5 5 4 4 4 4 5 5 4 5 5 4
4 3 5 9 4 3 3 9 8 4 4 5 4 6 10 8 7 7 7 11 12 12 15 17 14 10 11 12 8 6 6 7 6 6 5 1 3 2 4 5 5 5 6 6 6 5 5 5 5
6 7 4 3 3 2 6 6 7 5 6 8 8 8 9 4 6 6 8 10 12 13 14 13 13 15 12 11 9 8 7 5 7 6 6 7 7 4 2 3 4 6 7 7 7 6 5 5 3
1 1 7 7 4 7 1 8 7 7 8 10 12 8 4 5 5 6 7 10 9 11 12 14 14 14 11 13 10 10 11 8 11 9 7 8 9 10 7 2 2 5 7 7 7 6 6 6 6
2 5 7 7 4 1 3 9 6 8 7 8 9 5 5 7 5 5 3 7 9 10 11 14 13 14 7 8 11 7 9 13 11 9 9 9 7 8 9 9 6 4 5 6 7 7 5 6 6
Wind_Direction
142 140 143 173 44 69 57 335 150 90 77 325 128 131 123 43 78 170 134 138 128 134 142 140 135 126 125 124 123 120 122 124 125 124 126 123 130 126 128 138 124 106 106 109 110 113 111 120 136
146 145 150 72 76 48 307 333 120 80 139 74 82 90 52 71 66 116 109 148 133 131 134 139 131 133 138 128 125 127 135 134 130 132 125 120 122 129 135 131 117 123 117 120 130 113 108 108 114
173 227 36 106 92 115 162 20 113 126 107 61 101 58 72 82 115 138 140 139 128 124 133 151 136 139 135 136 137 140 139 140 145 138 132 142 142 134 147 134 108 105 121 115 110 113 109 110 113
109 36 3 67 52 47 174 177 141 135 79 67 113 69 72 126 140 135 138 135 122 128 136 148 146 146 146 146 147 146 151 151 152 153 145 150 157 136 142 124 110 104 113 132 124 109 120 120 109
105 91 36 33 13 339 356 149 139 86 72 51 46 82 86 32 114 132 137 133 140 134 145 148 154 157 160 156 152 159 154 151 153 152 142 153 150 132 145 131 130 142 138 117 125 150 113 117 122
32 92 44 339 348 355 24 110 129 76 78 114 84 87 72 128 134 143 138 138 144 143 143 161 169 166 163 161 161 163 162 162 163 163 168 177 161 155 154 146 155 169 157 150 147 129 131 145 140
100 75 159 221 281 211 182 148 97 103 112 103 138 85 105 146 142 135 125 117 137 138 126 149 170 172 172 161 170 170 169 163 172 169 165 175 169 166 152 177 185 202 203 198 186 173 163 165 170
114 98 95 201 230 243 163 143 119 111 88 113 148 158 172 166 138 108 105 100 117 123 131 154 167 166 155 175 183 185 182 184 185 187 186 182 188 188 186 197 225 218 232 231 242 235 225 212 206
146 55 190 233 170 208 149 121 126 98 133 135 134 121 130 135 126 122 124 136 129 155 165 168 170 171 178 187 189 191 193 197 194 200 195 201 165 245 241 227 228 232 238 244 235 242 245 244 243
93 110 228 200 198 175 167 133 154 111 148 65 80 98 123 136 147 151 163 170 179 187 188 179 178 185 181 179 193 189 219 194 191 207 231 146 186 236 228 247 246 245 245 244 248 249 251 252 228
147 220 218 251 192 137 153 134 151 123 204 173 148 141 144 153 165 169 176 184 180 180 187 186 187 196 185 186 169 206 216 224 212 227 222 222 235 279 320 303 303 341 267 242 271 294 283 252 244
293 288 183 147 143 122 152 140 136 166 201 140 154 151 151 164 178 185 181 175 176 178 191 185 188 193 197 175 187 203 203 202 218 233 228 220 224 233 250 271 271 283 289 285 271 247 263 265 240
204 322 59 143 139 130 132 141 174 205 100 128 139 147 165 172 182 195 194 188 179 185 190 195 189 198 191 197 193 208 210 208 207 212 222 214 224 221 260 275 293 290 306 260 261 245 254 276 273
332 19 110 76 131 69 104 116 111 107 127 133 151 165 174 177 181 181 188 195 198 191 193 196 202 199 188 199 194 212 208 209 209 214 218 220 214 202 213 238 246 261 238 253 262 262 266 258 254
281 80 17 38 50 116 111 35 97 154 145 148 169 177 182 187 178 192 188 198 201 201 187 196 202 196 195 198 194 207 218 211 220 209 222 220 211 222 237 253 260 263 244 263 256 261 262 268 265
45 52 52 326 192 207 143 258 152 161 153 165 170 187 192 194 190 194 193 196 197 197 194 189 196 196 199 196 194 199 218 225 230 205 201 219 216 210 253 272 266 277 278 281 288 284 282 277 286
24 92 33 271 228 85 115 296 173 165 170 170 183 178 195 208 207 202 203 195 190 193 184 193 193 193 195 196 195 210 213 239 241 208 187 207 189 203 229 245 281 304 318 353 330 325 258 291 318
130 23 332 262 270 185 174 209 161 187 181 187 188 179 192 200 214 206 205 202 191 186 185 194 193 194 174 161 140 131 219 248 225 223 177 167 191 208 244 284 284 245 71 197 229 334 306 319 324
133 158 255 261 259 30 218 253 196 192 193 195 191 192 199 213 207 207 204 196 185 179 179 186 187 188 156 153 154 172 199 190 180 175 148 152 221 246 206 231 228 51 49 28 42 45 20 11 337
112 319 288 292 272 163 133 253 238 175 206 197 191 195 206 203 194 195 199 190 186 187 188 186 196 179 184 186 153 151 149 161 119 151 142 154 234 222 205 210 145 100 94 59 47 42 66 354 13
156 195 197 248 332 261 13 315 306 230 247 208 210 203 202 206 206 194 191 193 182 189 189 190 192 183 185 160 126 94 83 81 122 167 184 207 227 218 190 168 131 107 88 74 50 32 62 66 18
298 201 207 220 67 269 54 278 292 314 282 227 195 199 206 202 202 198 195 193 191 200 193 186 187 183 180 158 161 158 178 166 196 160 161 177 200 165 156 128 115 119 101 92 73 56 70 109 22
228 167 198 194 172 73 322 82 271 2 304 251 199 211 207 201 199 190 191 197 199 189 187 185 181 191 175 178 178 174 164 167 131 114 119 153 137 137 118 122 122 124 114 101 102 76 62 56 86
125 116 58 55 80 58 247 149 277 248 237 294 221 209 208 188 201 190 195 195 195 186 173 176 176 193 180 177 174 174 179 165 136 135 148 165 121 125 147 134 136 129 128 131 106 99 81 77 74
80 58 354 356 3 218 27 98 242 267 264 245 210 213 179 166 187 173 178 187 180 183 180 173 179 193 184 184 178 178 183 168 171 166 158 153 139 153 154 136 148 142 137 137 108 88 80 69 69
170 151 157 201 203 249 52 229 253 256 275 279 241 182 162 189 200 198 189 189 184 184 183 175 185 190 181 174 183 180 170 166 158 162 146 191 174 150 155 140 135 138 129 112 104 97 91 83 68
168 183 171 103 10 45 259 292 306 327 317 322 219 172 211 216 194 194 177 193 183 183 184 190 185 191 192 182 154 167 161 158 162 135 147 173 32 104 134 150 145 134 116 108 95 85 83 86 84
147 156 81 15 136 230 298 285 246 294 266 261 268 230 235 184 178 175 183 193 189 192 192 183 181 194 189 168 157 161 148 125 113 113 107 103 119 118 205 132 147 123 115 111 108 102 92 83 56
101 47 51 111 108 152 191 274 216 225 221 223 244 240 240 209 205 194 200 191 187 187 183 188 188 192 186 163 162 133 141 132 128 152 162 117 141 149 152 121 43 98 114 115 110 108 111 99 92
152 173 133 122 232 66 144 272 341 307 305 259 267 283 271 207 218 208 201 173 178 187 184 192 195 201 167 110 113 127 140 145 171 141 154 117 106 122 118 108 114 127 135 129 129 118 108 108 100